Location: Newark
(51.0089°N, 21.5817°E)
Time: 12:45:45
(UTC+00:00)

XW-2F - Pass Details

Date: 24 February 2020
Orbit: 503 x 521 km, 97.5° (Epoch: 06 April)

Event Time Altitude Azimuth Distance (km) Brightness Sun altitude
Rises 04:24:29 0° 18° (NNE) 2,634 ? -11.0°
Reaches altitude 10° 04:26:39 10° 25° (NNE) 1,745 ? -10.7°
Maximum altitude 04:30:16 44° 99° (E) 722 ? -10.1°
Drops below altitude 10° 04:33:52 10° 172° (S) 1,741 ? -9.6°
Sets 04:36:02 0° 179° (S) 2,626 ? -9.2°
